Weather History for Jackson, KY

Change the Weather History Date:

Saturday, October 13, 2012

  Actual Average Record
Temperature  
Mean Temperature 61 °F 59 °F  
Max Temperature 76 °F 69 °F 84 °F (1985)
Min Temperature 45 °F 49 °F 29 °F (2006)
Degree Days  
Heating Degree Days 4 7  
Month to date heating degree days 111 77  
Since 1 July heating degree days 173 129  
Cooling Degree Days 0 1  
Month to date cooling degree days 12 19  
Year to date cooling degree days 1306 1140  
Growing Degree Days 10 (Base 50)    
Moisture  
Dew Point 48 °F    
Average Humidity 64    
Maximum Humidity 82    
Minimum Humidity 46    
Precipitation  
Precipitation 0.00 in 0.10 in 1.66 in (1994)
Month to date precipitation 1.67 1.30  
Year to date precipitation 42.19 38.31  
Snow  
Snow 0.00 in 0.00 in - ()
Month to date snowfall 0.0 0.0  
Since 1 July snowfall 0.0 0.0  
Since 1 September snowfall 0.0 0.0  
Snow Depth 0.00 in    
Sea Level Pressure  
Sea Level Pressure 30.24 in    
Wind  
Wind Speed 4 mph (SE)    
Max Wind Speed 10 mph    
Max Gust Speed 16 mph    
Visibility 10 miles    
Events      
T = Trace of Precipitation, MM = Missing Value Source: NWS Daily Summary

Daily Weather History Graph

Daily Weather History Graph

Search for Another Location

Airport:

Trip Planner

Search our weather history database for the weather conditions in past years. The results will help you decide how hot, cold, wet, or windy it might be!

Date:

Astronomy

Oct. 13, 2012 Rise Set
Actual Time 7:40 AM EDT 6:58 PM EDT
Civil Twilight 7:13 AM EDT 7:24 PM EDT
Nautical Twilight 6:43 AM EDT 7:54 PM EDT
Astronomical Twilight 6:13 AM EDT 8:24 PM EDT
Moon 5:30 AM EDT (10/13) 5:40 PM EDT (10/13)
Length of Visible Light 12h 10m
Length of Day
11h 18m
Waning Crescent, 5% of the Moon is Illuminated
Oct 13
Waning Crescent
Oct 15
New
Oct 21
First Quarter
Oct 29
Full
Nov 6
Last Quarter

Hourly Weather History & Observations

Time (EDT) Temp. Windchill Dew Point Humidity Pressure Visibility Wind Dir Wind Speed Gust Speed Precip Events Conditions
12:53 AM 50.0 °F - 41.0 °F 71% 30.32 in 10.0 mi Calm Calm - N/A   Clear
1:53 AM 48.9 °F - 41.0 °F 74% 30.31 in 10.0 mi Calm Calm - N/A   Clear
2:53 AM 48.0 °F - 41.0 °F 77% 30.30 in 10.0 mi Calm Calm - N/A   Clear
3:53 AM 48.0 °F - 41.0 °F 77% 30.28 in 10.0 mi Calm Calm - N/A   Clear
4:53 AM 46.9 °F - 41.0 °F 80% 30.29 in 10.0 mi ESE 4.6 mph - N/A   Clear
5:53 AM 46.9 °F - 41.0 °F 80% 30.30 in 10.0 mi SSE 4.6 mph - N/A   Clear
6:53 AM 46.9 °F - 41.0 °F 80% 30.30 in 10.0 mi SSE 4.6 mph - N/A   Clear
7:53 AM 46.0 °F 43.9 °F 41.0 °F 83% 30.30 in 10.0 mi SE 4.6 mph - N/A   Clear
8:53 AM 48.0 °F - 42.1 °F 80% 30.30 in 10.0 mi SE 3.5 mph - N/A   Clear
9:53 AM 52.0 °F - 44.1 °F 74% 30.31 in 10.0 mi Calm Calm - N/A   Clear
10:53 AM 55.9 °F - 45.0 °F 67% 30.31 in 10.0 mi Calm Calm - N/A   Clear
11:53 AM 63.0 °F - 48.0 °F 58% 30.28 in 10.0 mi Variable 5.8 mph - N/A   Clear
12:53 PM 68.0 °F - 51.1 °F 55% 30.25 in 10.0 mi South 6.9 mph - N/A   Clear
1:53 PM 72.0 °F - 53.1 °F 51% 30.22 in 10.0 mi Variable 3.5 mph - N/A   Clear
2:53 PM 73.9 °F - 52.0 °F 46% 30.19 in 10.0 mi Variable 6.9 mph - N/A   Clear
3:53 PM 75.2 °F - 53.6 °F 47% 30.19 in 10.0 mi Variable 3.5 mph - N/A   Clear
4:53 PM 73.0 °F - 52.0 °F 48% 30.16 in 10.0 mi Variable 3.5 mph - N/A   Partly Cloudy
5:53 PM 72.0 °F - 53.1 °F 51% 30.16 in 10.0 mi Variable 6.9 mph - N/A   Partly Cloudy
6:53 PM 70.0 °F - 54.0 °F 57% 30.17 in 10.0 mi Variable 3.5 mph - N/A   Overcast
7:53 PM 68.0 °F - 53.6 °F 60% 30.18 in 10.0 mi Variable 3.5 mph - N/A   Overcast
8:53 PM 66.9 °F - 54.0 °F 63% 30.17 in 10.0 mi Variable 4.6 mph - N/A   Clear
9:53 PM 66.2 °F - 53.6 °F 64% 30.18 in 10.0 mi Variable 4.6 mph - N/A   Clear
10:53 PM 64.0 °F - 54.0 °F 70% 30.16 in 10.0 mi Variable 3.5 mph - N/A   Clear
11:53 PM 62.6 °F - 53.6 °F 72% 30.16 in 10.0 mi Variable 4.6 mph - N/A   Clear